sat.trackr.live / text

‹ back to catalog

STARLINK-3825

NORAD 52478 · 2022-049AD

PAYLOAD ACTIVE UNKNOWN

§ Identity

Operator
Country
US
Launch date
2022-05-06
Launch site
AFETR
Launch vehicle
Mass (kg)
RCS (m²)

Purposes: comms

External: N2YO · Heavens-Above · Gunter

§ Orbital elements

Epoch: 2026-05-25T04:55:47.607168Z

Period
95.44 min
Inclination
53.2163°
Eccentricity
0.0001582
Mean motion
15.08838233 rev/d
Perigee alt
538.7 km
Apogee alt
540.8 km
Semi-major
6,917.9 km
B*
2.4362e-5
RAAN
75.6258°
Arg perigee
87.4075°
Mean anomaly
272.7098°
Rev number
22,504

§ Raw data

STARLINK-38251 52478U 22049AD  26145.20541212  .00000100  00000+0  24362-4 0  99992 52478  53.2163  75.6258 0001582  87.4075 272.7098 15.08838233225047

JSON: /api/v1/satellites/52478 · /tle

For live sub-satellite position, see the globe view (requires WebGL).

§ Visibility from observer

Set your observer location to see the next 7 days of passes ≥ 10°. The values pass through the URL so the page stays shareable.

No JS? Fill the form by hand. The geolocation button needs JavaScript.